Jonesboro, AR

10:55 AM CDT on July 20, 2017 (GMT -0500)
Jonesboro Municipal

Weather History for KJBR - November, 2014

Change the Weather History Date:

Thursday, November 13, 2014

  Actual Average Record
Temperature  
Mean Temperature 33 °F 51 °F  
Max Temperature 38 °F 61 °F 85 °F (1955)
Min Temperature 27 °F 41 °F 15 °F (1986)
Degree Days  
Heating Degree Days 32 14  
Month to date heating degree days 230 154  
Since 1 July heating degree days 371 341  
Cooling Degree Days 0 0  
Month to date cooling degree days 0 1  
Year to date cooling degree days 1798 1825  
Moisture  
Dew Point 14 °F    
Average Humidity 49    
Maximum Humidity 63    
Minimum Humidity 35    
Precipitation  
Precipitation 0.00 in 0.17 in 1.51 in (1957)
Month to date precipitation 1.05 1.75  
Year to date precipitation 40.52 40.18  
Snow  
Snow 0.00 in 0.00 in T in (1969)
Month to date snowfall 0.0 0.0  
Since 1 July snowfall 0.0 0.0  
Since 1 September snowfall 0.0 0.0  
Snow Depth 0.00 in    
Sea Level Pressure  
Sea Level Pressure 30.45 in    
Wind  
Wind Speed 8 mph (NNW)    
Max Wind Speed 17 mph    
Max Gust Speed 46 mph    
Visibility 10 miles    
Events      
T = Trace of Precipitation, MM = Missing Value Source: NWS Daily Summary

Daily Weather History Graph

Daily Weather History Graph

Search for Another Location

Airport or City:

Trip Planner

Search our weather history database for the weather conditions in past years. The results will help you decide how hot, cold, wet, or windy it might be!

Date:

Astronomy

Nov. 13, 2014 Rise Set
Actual Time 6:36 AM CST 4:56 PM CST
Civil Twilight 6:09 AM CST 5:23 PM CST
Nautical Twilight 5:38 AM CST 5:54 PM CST
Astronomical Twilight 5:08 AM CST 6:24 PM CST
Moon 11:09 PM CST (11/13) 11:59 AM CST (11/13)
Length of Visible Light 11h 14m
Length of Day
10h 19m
Waning Gibbous, 58% of the Moon is Illuminated
Nov 13
Waning Gibbous
Nov 14
Last Quarter
Nov 22
New
Nov 29
First Quarter
Dec 6
Full

Hourly Weather History & Observations

Time (CST) Temp. Windchill Dew Point Humidity Pressure Visibility Wind Dir Wind Speed Gust Speed Precip Events Conditions
12:53 AM 34.0 °F 26.0 °F 19.0 °F 54% 30.40 in 10.0 mi North 10.4 mph 16.1 mph N/A   Overcast
1:53 AM 32.0 °F 23.6 °F 18.0 °F 56% 30.41 in 10.0 mi NNW 10.4 mph - N/A   Scattered Clouds
2:53 AM 30.9 °F 25.2 °F 17.1 °F 57% 30.44 in 10.0 mi NNW 5.8 mph - N/A   Mostly Cloudy
3:53 AM 30.0 °F 21.7 °F 15.1 °F 54% 30.44 in 10.0 mi North 9.2 mph - N/A   Scattered Clouds
4:53 AM 30.0 °F 23.2 °F 14.0 °F 51% 30.44 in 10.0 mi North 6.9 mph - N/A   Clear
5:53 AM 28.9 °F 19.8 °F 12.9 °F 51% 30.45 in 10.0 mi NNW 10.4 mph - N/A   Clear
6:53 AM 28.0 °F 20.0 °F 12.0 °F 51% 30.48 in 10.0 mi NNW 8.1 mph 18.4 mph N/A   Mostly Cloudy
7:53 AM 28.0 °F 20.8 °F 12.0 °F 51% 30.50 in 10.0 mi North 6.9 mph 16.1 mph N/A   Clear
8:53 AM 28.9 °F 20.4 °F 10.9 °F 47% 30.50 in 10.0 mi North 9.2 mph 17.3 mph N/A   Scattered Clouds
9:53 AM 30.0 °F 20.0 °F 10.9 °F 45% 30.50 in 10.0 mi NW 12.7 mph 20.7 mph N/A   Clear
10:53 AM 32.0 °F 22.1 °F 12.9 °F 45% 30.49 in 10.0 mi North 13.8 mph 17.3 mph N/A   Clear
11:53 AM 34.0 °F 26.0 °F 12.9 °F 42% 30.47 in 10.0 mi NNW 10.4 mph 46.0 mph N/A   Clear
12:53 PM 35.1 °F 26.9 °F 12.0 °F 39% 30.44 in 10.0 mi North 11.5 mph 18.4 mph N/A   Clear
1:53 PM 36.0 °F 29.0 °F 12.0 °F 37% 30.42 in 10.0 mi NNW 9.2 mph 17.3 mph N/A   Clear
2:53 PM 37.0 °F 31.0 °F 12.0 °F 36% 30.41 in 10.0 mi North 8.1 mph - N/A   Clear
3:53 PM 37.0 °F 31.6 °F 12.0 °F 36% 30.41 in 10.0 mi North 6.9 mph - N/A   Clear
4:53 PM 35.1 °F 29.3 °F 12.9 °F 40% 30.43 in 10.0 mi North 6.9 mph - N/A   Clear
5:53 PM 32.0 °F - 12.9 °F 45% 30.44 in 10.0 mi Calm Calm - N/A   Clear
6:53 PM 28.9 °F - 18.0 °F 64% 30.45 in 10.0 mi Calm Calm - N/A   Clear
7:53 PM 30.0 °F 26.5 °F 17.1 °F 59% 30.45 in 10.0 mi NNW 3.5 mph - N/A   Clear
8:53 PM 30.0 °F 23.2 °F 16.0 °F 56% 30.46 in 10.0 mi NNW 6.9 mph - N/A   Clear
9:53 PM 28.9 °F 23.9 °F 16.0 °F 58% 30.46 in 10.0 mi North 4.6 mph - N/A   Clear
10:53 PM 28.0 °F 20.8 °F 16.0 °F 61% 30.47 in 10.0 mi North 6.9 mph - N/A   Clear
11:53 PM 27.0 °F 18.7 °F 15.1 °F 61% 30.47 in 10.0 mi North 8.1 mph - N/A   Clear